TimeCDT,TemperatureF,Dew PointF,Humidity,Sea Level PressureIn,VisibilityMPH,Wind Direction,Wind SpeedMPH,Gust SpeedMPH,PrecipitationIn,Events,Conditions,WindDirDegrees,DateUTC
12:15 AM,60.8,53.6,77,30.04,10.0,Calm,Calm,-,N/A,,Clear,0,2013-07-25 05:15:00
12:35 AM,60.8,53.6,77,30.03,10.0,SSW,3.5,-,N/A,,Clear,200,2013-07-25 05:35:00
12:55 AM,59.0,53.6,82,30.03,10.0,Calm,Calm,-,N/A,,Clear,0,2013-07-25 05:55:00
1:15 AM,59.0,53.6,82,30.03,10.0,SSW,3.5,-,N/A,,Clear,210,2013-07-25 06:15:00
1:35 AM,62.6,53.6,72,30.02,10.0,SSW,6.9,-,N/A,,Clear,210,2013-07-25 06:35:00
1:55 AM,62.6,53.6,72,30.02,10.0,SW,8.1,-,N/A,,Clear,220,2013-07-25 06:55:00
2:15 AM,62.6,53.6,72,30.03,10.0,SW,6.9,-,N/A,,Clear,220,2013-07-25 07:15:00
2:35 AM,60.8,53.6,77,30.02,10.0,SSW,6.9,-,N/A,,Clear,210,2013-07-25 07:35:00
2:55 AM,62.6,53.6,72,30.01,10.0,SSW,5.8,-,N/A,,Clear,200,2013-07-25 07:55:00
3:15 AM,59.0,51.8,77,30.01,10.0,SSW,6.9,-,N/A,,Clear,200,2013-07-25 08:15:00
3:35 AM,60.8,53.6,77,30.01,10.0,SSW,8.1,-,N/A,,Clear,210,2013-07-25 08:35:00
3:55 AM,60.8,53.6,77,30.01,10.0,SSW,6.9,-,N/A,,Clear,210,2013-07-25 08:55:00
4:15 AM,60.8,53.6,77,30.01,10.0,SW,9.2,-,N/A,,Clear,220,2013-07-25 09:15:00
4:35 AM,60.8,53.6,77,30.01,10.0,SSW,8.1,-,N/A,,Clear,210,2013-07-25 09:35:00
4:55 AM,60.8,53.6,77,30.01,10.0,SSW,8.1,-,N/A,,Clear,200,2013-07-25 09:55:00
5:15 AM,60.8,53.6,77,30.00,10.0,SSW,6.9,-,N/A,,Clear,200,2013-07-25 10:15:00
5:35 AM,60.8,53.6,77,30.00,10.0,SSW,6.9,-,N/A,,Clear,210,2013-07-25 10:35:00
5:55 AM,60.8,53.6,77,30.01,10.0,SW,6.9,-,N/A,,Clear,220,2013-07-25 10:55:00
6:15 AM,60.8,55.4,82,30.01,10.0,SW,6.9,-,N/A,,Clear,220,2013-07-25 11:15:00
6:35 AM,62.6,55.4,77,30.01,10.0,SW,8.1,-,N/A,,Clear,220,2013-07-25 11:35:00
6:55 AM,64.4,55.4,73,30.01,10.0,SW,9.2,-,N/A,,Clear,230,2013-07-25 11:55:00
7:15 AM,66.2,57.2,73,30.01,10.0,SW,10.4,-,N/A,,Clear,230,2013-07-25 12:15:00
7:35 AM,66.2,57.2,73,30.02,10.0,SW,8.1,-,N/A,,Clear,230,2013-07-25 12:35:00
7:55 AM,69.8,57.2,64,30.02,10.0,WSW,10.4,-,N/A,,Clear,240,2013-07-25 12:55:00
8:15 AM,71.6,59.0,64,30.01,10.0,WSW,9.2,-,N/A,,Clear,240,2013-07-25 13:15:00
8:35 AM,71.6,59.0,64,30.01,10.0,WSW,9.2,-,N/A,,Clear,250,2013-07-25 13:35:00
8:55 AM,73.4,60.8,65,30.01,10.0,WSW,9.2,17.3,N/A,,Clear,240,2013-07-25 13:55:00
9:15 AM,75.2,60.8,61,30.01,10.0,SW,11.5,-,N/A,,Clear,230,2013-07-25 14:15:00
9:35 AM,77.0,60.8,57,30.01,10.0,WSW,9.2,-,N/A,,Clear,240,2013-07-25 14:35:00
9:55 AM,78.8,60.8,54,30.01,10.0,SW,9.2,16.1,N/A,,Clear,230,2013-07-25 14:55:00
10:15 AM,80.6,62.6,54,30.01,10.0,SW,11.5,-,N/A,,Clear,230,2013-07-25 15:15:00
10:35 AM,78.8,62.6,57,30.01,10.0,SW,10.4,-,N/A,,Clear,230,2013-07-25 15:35:00
10:55 AM,80.6,62.6,54,30.02,10.0,SW,10.4,-,N/A,,Clear,230,2013-07-25 15:55:00
11:15 AM,80.6,62.6,54,30.02,10.0,WSW,10.4,-,N/A,,Clear,240,2013-07-25 16:15:00
11:35 AM,80.6,62.6,54,30.02,10.0,SW,9.2,-,N/A,,Clear,230,2013-07-25 16:35:00
11:55 AM,82.4,64.4,54,30.01,10.0,SW,8.1,-,N/A,,Clear,230,2013-07-25 16:55:00
12:15 PM,82.4,62.6,51,30.01,10.0,WSW,9.2,-,N/A,,Clear,240,2013-07-25 17:15:00
12:35 PM,82.4,62.6,51,30.00,10.0,SW,9.2,-,N/A,,Clear,230,2013-07-25 17:35:00
12:55 PM,82.4,64.4,54,30.00,10.0,WSW,6.9,-,N/A,,Clear,250,2013-07-25 17:55:00
1:15 PM,84.2,62.6,48,29.99,10.0,SW,9.2,-,N/A,,Clear,230,2013-07-25 18:15:00
1:35 PM,84.2,64.4,51,29.98,10.0,SW,8.1,-,N/A,,Partly Cloudy,230,2013-07-25 18:35:00
1:55 PM,82.4,64.4,54,29.98,10.0,WSW,9.2,-,N/A,,Mostly Cloudy,240,2013-07-25 18:55:00
2:15 PM,82.4,64.4,54,29.97,10.0,WSW,9.2,-,N/A,,Mostly Cloudy,240,2013-07-25 19:15:00
2:35 PM,84.2,64.4,51,29.95,10.0,WSW,12.7,-,N/A,,Clear,240,2013-07-25 19:35:00
2:55 PM,86.0,64.4,48,29.97,10.0,WSW,10.4,-,N/A,,Scattered Clouds,240,2013-07-25 19:55:00
3:15 PM,84.2,62.6,48,29.95,10.0,WSW,9.2,-,N/A,,Overcast,250,2013-07-25 20:15:00
3:35 PM,84.2,64.4,51,29.95,10.0,WSW,9.2,16.1,N/A,,Overcast,240,2013-07-25 20:35:00
3:55 PM,78.8,62.6,57,29.98,10.0,North,13.8,17.3,N/A,Thunderstorm,Mostly Cloudy,360,2013-07-25 20:55:00
4:15 PM,71.6,60.8,69,29.98,10.0,NNE,12.7,23.0,N/A,,Overcast,30,2013-07-25 21:15:00
4:35 PM,69.8,62.6,78,29.97,10.0,NNE,11.5,19.6,N/A,,Mostly Cloudy,20,2013-07-25 21:35:00
4:55 PM,68.0,62.6,83,29.98,10.0,East,9.2,-,0.02,Thunderstorm,Overcast,80,2013-07-25 21:55:00
5:15 PM,68.0,62.6,83,29.97,10.0,ENE,8.1,-,N/A,Thunderstorm,Mostly Cloudy,60,2013-07-25 22:15:00
5:35 PM,68.0,60.8,78,29.96,10.0,East,4.6,-,N/A,,Partly Cloudy,80,2013-07-25 22:35:00
5:55 PM,68.0,60.8,78,29.95,10.0,East,5.8,-,N/A,,Clear,90,2013-07-25 22:55:00
6:15 PM,71.6,62.6,73,29.96,6.0,ESE,5.8,-,N/A,,Scattered Clouds,120,2013-07-25 23:15:00
6:35 PM,69.8,62.6,78,29.95,10.0,SE,8.1,-,N/A,,Mostly Cloudy,140,2013-07-25 23:35:00
6:55 PM,69.8,60.8,73,29.95,10.0,ESE,3.5,-,N/A,,Partly Cloudy,120,2013-07-25 23:55:00
7:15 PM,69.8,60.8,73,29.96,10.0,ESE,3.5,-,N/A,,Clear,120,2013-07-26 00:15:00
7:35 PM,71.6,60.8,69,29.95,10.0,ENE,4.6,-,N/A,,Clear,60,2013-07-26 00:35:00
7:55 PM,69.8,60.8,73,29.96,10.0,SE,5.8,-,N/A,,Clear,140,2013-07-26 00:55:00
8:15 PM,69.8,60.8,73,29.97,10.0,South,9.2,-,N/A,,Partly Cloudy,170,2013-07-26 01:15:00
8:35 PM,69.8,60.8,73,29.97,10.0,SSE,8.1,-,N/A,,Mostly Cloudy,160,2013-07-26 01:35:00
8:55 PM,68.0,62.6,83,29.97,10.0,SSE,5.8,-,N/A,,Mostly Cloudy,150,2013-07-26 01:55:00
9:15 PM,66.2,62.6,88,29.98,10.0,South,3.5,-,N/A,,Overcast,170,2013-07-26 02:15:00
9:35 PM,66.2,60.8,83,29.99,10.0,North,3.5,-,N/A,,Partly Cloudy,350,2013-07-26 02:35:00
9:55 PM,66.2,60.8,83,29.99,10.0,SSE,4.6,-,N/A,,Scattered Clouds,160,2013-07-26 02:55:00
10:15 PM,66.2,60.8,83,30.00,10.0,Calm,Calm,-,N/A,,Scattered Clouds,0,2013-07-26 03:15:00
10:35 PM,64.4,60.8,88,29.99,10.0,Calm,Calm,-,N/A,,Clear,0,2013-07-26 03:35:00
10:55 PM,64.4,60.8,88,29.99,10.0,Calm,Calm,-,N/A,,Clear,0,2013-07-26 03:55:00
11:15 PM,62.6,59.0,88,29.98,10.0,Calm,Calm,-,N/A,,Clear,0,2013-07-26 04:15:00
11:35 PM,62.6,57.2,82,29.98,10.0,SSE,4.6,-,N/A,,Clear,150,2013-07-26 04:35:00
11:55 PM,62.6,57.2,82,29.98,10.0,SSE,4.6,-,N/A,,Clear,150,2013-07-26 04:55:00